Weather History for KSTS - March, 2013

Change the Weather History Date:

Thursday, March 28, 2013

  Actual Average Record
Temperature  
Mean Temperature 56 °F 54 °F  
Max Temperature 63 °F 66 °F 82 °F (2015)
Min Temperature 48 °F 42 °F 33 °F (1999)
Degree Days  
Heating Degree Days 9    
Month to date heating degree days 330  
Since 1 July heating degree days 2407  
Cooling Degree Days 0    
Month to date cooling degree days 0  
Year to date cooling degree days 0  
Growing Degree Days 6 (Base 50)    
Moisture  
Dew Point 49 °F    
Average Humidity 80    
Maximum Humidity 93    
Minimum Humidity 67    
Precipitation  
Precipitation 0.06 in 0.13 in 0.30 in (2006)
Month to date precipitation 1.50 4.56  
Year to date precipitation 2.69 18.01  
Since 1 July precipitation 25.10  
Sea Level Pressure  
Sea Level Pressure 30.03 in    
Wind  
Wind Speed 2 mph (West)    
Max Wind Speed 9 mph    
Max Gust Speed 13 mph    
Visibility 10 miles    
Events Rain    
T = Trace of Precipitation, MM = Missing Value Source: NWS Daily Summary

Daily Weather History Graph

Daily Weather History Graph

Search for Another Location

Airport or City:

Trip Planner

Search our weather history database for the weather conditions in past years. The results will help you decide how hot, cold, wet, or windy it might be!

Date:

Astronomy

Mar. 28, 2013 Rise Set
Actual Time 7:01 AM PDT 7:31 PM PDT
Civil Twilight 6:35 AM PDT 7:57 PM PDT
Nautical Twilight 6:03 AM PDT 8:29 PM PDT
Astronomical Twilight 5:31 AM PDT 9:01 PM PDT
Moon 9:27 PM PDT (3/28) 7:34 AM PDT (3/28)
Length of Visible Light 13h 22m
Length of Day
12h 29m
Full, 98% of the Moon is Illuminated
Mar 28
Full
Apr 2
Last Quarter
Apr 10
New
Apr 18
First Quarter
Apr 25
Full

Hourly Weather History & Observations

Time (PDT) Temp. Dew Point Humidity Pressure Visibility Wind Dir Wind Speed Gust Speed Precip Events Conditions
12:19 AM 50.0 °F 48.2 °F 94% 30.01 in 10.0 mi South 3.5 mph - N/A   Overcast
12:53 AM 50.0 °F 48.0 °F 93% 30.00 in 10.0 mi Calm Calm - N/A   Overcast
1:53 AM 50.0 °F 46.9 °F 89% 30.00 in 10.0 mi Calm Calm - N/A   Overcast
2:24 AM 50.0 °F 48.2 °F 94% 30.01 in 10.0 mi Calm Calm - N/A   Overcast
2:36 AM 50.0 °F 48.2 °F 94% 30.01 in 10.0 mi WSW 3.5 mph - N/A   Overcast
2:53 AM 50.0 °F 48.0 °F 93% 30.00 in 10.0 mi Calm Calm - N/A   Overcast
3:53 AM 50.0 °F 48.0 °F 93% 29.99 in 10.0 mi Calm Calm - N/A   Overcast
4:14 AM 50.0 °F 46.4 °F 87% 30.01 in 10.0 mi Calm Calm - N/A   Overcast
4:25 AM 50.0 °F 48.2 °F 94% 30.01 in 10.0 mi Calm Calm - N/A   Overcast
4:49 AM 50.0 °F 46.4 °F 87% 30.01 in 10.0 mi North 3.5 mph - N/A   Overcast
4:53 AM 50.0 °F 46.9 °F 89% 29.99 in 10.0 mi NNW 3.5 mph - N/A   Overcast
5:53 AM 50.0 °F 46.9 °F 89% 30.00 in 10.0 mi WSW 6.9 mph - N/A   Overcast
6:16 AM 50.0 °F 46.4 °F 87% 30.02 in 10.0 mi West 3.5 mph - N/A   Overcast
6:43 AM 48.2 °F 46.4 °F 93% 30.02 in 9.0 mi WNW 3.5 mph - N/A   Overcast
6:53 AM 48.9 °F 46.0 °F 90% 30.01 in 9.0 mi West 3.5 mph - N/A   Overcast
7:02 AM 48.2 °F 46.4 °F 93% 30.02 in 9.0 mi Calm Calm - N/A   Overcast
7:53 AM 52.0 °F 48.0 °F 86% 30.03 in 9.0 mi Calm Calm - N/A   Overcast
8:53 AM 52.0 °F 48.0 °F 86% 30.05 in 8.0 mi Calm Calm - N/A   Overcast
9:00 AM 51.8 °F 48.2 °F 88% 30.07 in 7.0 mi Calm Calm - N/A   Overcast
9:53 AM 55.9 °F 48.9 °F 77% 30.06 in 10.0 mi NE 3.5 mph - N/A   Overcast
10:53 AM 57.9 °F 48.9 °F 72% 30.05 in 10.0 mi Calm Calm - N/A   Overcast
11:53 AM 57.9 °F 50.0 °F 75% 30.05 in 10.0 mi Calm Calm - 0.02 in Rain Light Rain
12:53 PM 57.0 °F 52.0 °F 83% 30.07 in 6.0 mi WNW 3.5 mph - 0.02 in Rain Light Rain
1:53 PM 57.9 °F 52.0 °F 81% 30.07 in 10.0 mi Calm Calm - 0.01 in   Overcast
2:53 PM 57.0 °F 52.0 °F 83% 30.06 in 10.0 mi West 4.6 mph - 0.00 in   Overcast
3:00 PM 57.2 °F 51.8 °F 82% 30.07 in 10.0 mi WSW 4.6 mph - N/A   Overcast
3:53 PM 60.1 °F 52.0 °F 75% 30.05 in 10.0 mi Calm Calm - N/A   Overcast
4:53 PM 63.0 °F 54.0 °F 72% 30.04 in 10.0 mi North 4.6 mph - N/A   Mostly Cloudy
5:53 PM 62.1 °F 52.0 °F 70% 30.03 in 10.0 mi NNW 3.5 mph - 0.01 in   Clear
6:53 PM 59.0 °F 52.0 °F 78% 30.03 in 10.0 mi WNW 4.6 mph - N/A   Mostly Cloudy
7:53 PM 57.0 °F 51.1 °F 81% 30.03 in 10.0 mi West 3.5 mph - N/A   Clear
8:53 PM 54.0 °F 51.1 °F 90% 30.05 in 10.0 mi South 3.5 mph - N/A   Clear
9:53 PM 51.1 °F 48.0 °F 89% 30.07 in 10.0 mi SE 5.8 mph - N/A   Clear
10:53 PM 48.9 °F 46.9 °F 93% 30.07 in 10.0 mi South 3.5 mph - N/A   Clear
11:53 PM 48.9 °F 46.9 °F 93% 30.07 in 8.0 mi Calm Calm - N/A   Clear